TITAN 3C TRANSTAGE DEB, 27878

Orbit data source: Space-Track

TITAN 3C TRANSTAGE DEB, 27878 is space debris in HEO originally from a launch on Tue, 21 Dec 1965 UTC launched from the Air Force Eastern Test Range (AFETR). Debris objects in space refer to the collection of defunct objects orbiting the Earth. Examples of debris include non-operational satellites, rocket bodies, and fragments generated from explosions, collisions, or faulty payload assembly.

Loading next visibility...
Identifier
27878, 1965-108BP
Orbit
HEO
Country
Flag of USUS
Related business
Manufacturer
Unknown
Mission
Spacecraft
Bus & Motor
Unknown
Mass
Unknown
Launch date (UTC)
1965-12-21 (60 years ago)
Launch vehicle
Unknown
Launch site
Air Force Eastern Test Range (AFETR)
Object type
Payload
Rocket body
Debris
Shape & HBR
Unknown shape, 0.1 m
Radar Cross Section
Medium (>0.1 m² and <1 m²)

Expand to show TLE details & history
Last TLE update: 3 months ago

TLE from 3 months ago
0 TITAN 3C TRANSTAGE DEB
1 27878U 65108BP  25261.43534998  .00000543  00000-0  31918-2 0  9999
2 27878  26.3230 245.9518 6718564 241.2162 349.2096  2.84311035118470
Epoch: 2025-09-18T10:26Z
TLE epoch observation values (Epoch: 2025-09-18T10:26:54.238Z)
Latitude
0.66639°
Longitude
-89.7906°
Altitude
2,458.249 km
Speed
8.443 km/s
True Right ascension
04h 18m 07s
True Declination
0° 39' 47"
Sunlit
Object was in daylight at epoch
Visualization orbit readout
Latitude
Unknown
Longitude
Unknown
Altitude
Unknown
Speed
Unknown
Apparent Right ascension
Unknown
Apparent Declination
Unknown
Sunlit
N/A
Visualization observer readout
Local Sidereal Time
08:49:20
Azimuth
Unknown
Elevation
Unknown
Doppler factor
Unknown
Orbital elements
Apogee altitude
28,816.799 km
Perigee altitude
529.749 km
Semi-major axis
21,051.411 km
Eccentricity
0.67186
Inclination
26.323°
RAAN
245.9518°
Arg. of periapsis
241.2162°
True anomaly
297.50859°
Mean anomaly
349.2096°
Eccentric anomaly
329.90998°
Mean motion
0.71059 °/min
Orbital period
506.62 mins
BSTAR
0.0031918
Loading maneuver chart data...
Computing Atmospheric mass density...

Documentation

Showing up to 5 results
|